Weather History for Juneau, WI

Change the Weather History Date:

Sunday, September 1, 2013

  Actual Average Record
Temperature  
Mean Temperature 71 °F -  
Max Temperature 82 °F 76 °F 91 °F (2000)
Min Temperature 60 °F 55 °F 41 °F (1992)
Cooling Degree Days 6    
Growing Degree Days 21 (Base 50)    
Moisture  
Dew Point 61 °F    
Average Humidity 78    
Maximum Humidity 100    
Minimum Humidity 42    
Precipitation  
Precipitation 0.00 in - - ()
Sea Level Pressure  
Sea Level Pressure 29.80 in    
Wind  
Wind Speed 5 mph (SW)    
Max Wind Speed 18 mph    
Max Gust Speed 23 mph    
Visibility 7 miles    
Events Fog    
Averages and records for this station are not official NWS values.
T = Trace of Precipitation, MM = Missing Value Source: NWS Daily Summary

Daily Weather History Graph

Daily Weather History Graph

Search for Another Location

Airport:

Trip Planner

Search our weather history database for the weather conditions in past years. The results will help you decide how hot, cold, wet, or windy it might be!

Date:

Astronomy

Sep. 01, 2013 Rise Set
Actual Time 6:19 AM CDT 7:29 PM CDT
Civil Twilight 5:49 AM CDT 7:58 PM CDT
Nautical Twilight 5:14 AM CDT 8:34 PM CDT
Astronomical Twilight 4:37 AM CDT 9:11 PM CDT
Moon 2:36 AM CDT (9/1) 5:10 PM CDT (9/1)
Length of Visible Light 14h 09m
Length of Day
13h 10m
Waning Crescent, 13% of the Moon is Illuminated
Sep 1
Waning Crescent
Sep 5
New
Sep 12
First Quarter
Sep 19
Full
Sep 26
Last Quarter

Hourly Weather History & Observations

Time (CDT) Temp. Heat Index Dew Point Humidity Pressure Visibility Wind Dir Wind Speed Gust Speed Precip Events Conditions
12:15 AM 63.1 °F - 62.4 °F 97% 29.85 in 7.0 mi Calm Calm - N/A   Clear
12:35 AM 63.1 °F - 62.6 °F 98% 29.84 in 7.0 mi East 5.8 mph - N/A   Clear
12:55 AM 62.1 °F - 61.7 °F 99% 29.84 in 5.0 mi Calm Calm - N/A   Clear
1:15 AM 60.6 °F - 60.3 °F 99% 29.85 in 2.0 mi Calm Calm - N/A   Clear
1:35 AM 60.6 °F - 60.6 °F 100% 29.84 in 0.5 mi Calm Calm - N/A Fog Fog
1:55 AM 61.2 °F - 61.2 °F 100% 29.82 in 5.0 mi SE 8.1 mph - N/A   Scattered Clouds
2:15 AM 61.9 °F - 61.9 °F 100% 29.83 in 5.0 mi ESE 5.8 mph - N/A   Clear
2:35 AM 61.9 °F - 61.9 °F 100% 29.82 in 4.0 mi ESE 6.9 mph - N/A   Clear
2:55 AM 61.0 °F - 61.0 °F 100% 29.81 in 4.0 mi ESE 6.9 mph - N/A   Clear
3:15 AM 61.3 °F - 61.3 °F 100% 29.81 in 7.0 mi SE 8.1 mph - N/A   Clear
3:35 AM 61.2 °F - 61.2 °F 100% 29.80 in 7.0 mi ESE 6.9 mph - N/A   Clear
3:55 AM 61.7 °F - 61.7 °F 100% 29.82 in 4.0 mi South 4.6 mph - N/A   Scattered Clouds
4:15 AM 60.6 °F - 60.6 °F 100% 29.83 in 4.0 mi WSW 5.8 mph - N/A   Mostly Cloudy
4:35 AM 61.9 °F - 61.9 °F 100% 29.82 in 0.2 mi South 3.5 mph - N/A Fog Fog
4:55 AM 62.2 °F - 62.2 °F 100% 29.80 in 0.2 mi SSE 4.6 mph - N/A Fog Fog
5:15 AM 62.6 °F - 62.6 °F 100% 29.80 in 0.2 mi Calm Calm - N/A Fog Fog
5:35 AM 62.4 °F - 62.4 °F 100% 29.82 in 0.2 mi SW 3.5 mph - N/A Fog Fog
5:55 AM 61.7 °F - 61.7 °F 100% 29.81 in 0.2 mi South 5.8 mph - N/A Fog Fog
6:15 AM 61.9 °F - 61.9 °F 100% 29.80 in 0.2 mi SSE 3.5 mph - N/A Fog Fog
6:35 AM 61.9 °F - 61.9 °F 100% 29.81 in 0.2 mi South 3.5 mph - N/A Fog Fog
6:55 AM 62.1 °F - 62.1 °F 100% 29.82 in 0.2 mi SW 5.8 mph - N/A Fog Fog
7:15 AM 62.1 °F - 62.1 °F 100% 29.82 in 0.2 mi SW 5.8 mph - N/A Fog Fog
7:35 AM 62.6 °F - 62.6 °F 100% 29.82 in 0.5 mi SW 4.6 mph - N/A Fog Fog
7:55 AM 63.5 °F - 63.5 °F 100% 29.81 in 3.0 mi SW 4.6 mph - N/A   Overcast
8:15 AM 64.0 °F - 64.0 °F 100% 29.82 in 4.0 mi SSW 6.9 mph - N/A   Overcast
8:35 AM 64.0 °F - 64.0 °F 100% 29.82 in 1.5 mi SSW 4.6 mph - N/A   Overcast
8:55 AM 64.9 °F - 64.9 °F 100% 29.82 in 0.5 mi SW 4.6 mph - N/A Fog Fog
9:15 AM 65.5 °F - 65.5 °F 100% 29.82 in 1.0 mi SW 5.8 mph - N/A   Overcast
9:35 AM 66.2 °F - 66.2 °F 100% 29.82 in 2.0 mi SW 5.8 mph - N/A   Overcast
9:55 AM 66.6 °F - 66.6 °F 100% 29.82 in 3.0 mi SW 8.1 mph - N/A   Overcast
10:15 AM 68.0 °F - 68.0 °F 100% 29.81 in 4.0 mi SSW 9.2 mph - N/A   Overcast
10:35 AM 69.4 °F - 69.4 °F 100% 29.80 in 7.0 mi SW 9.2 mph - N/A   Overcast
10:55 AM 72.7 °F - 68.7 °F 87% 29.80 in 10.0 mi SW 11.5 mph - N/A   Overcast
11:15 AM 74.5 °F - 67.6 °F 79% 29.78 in 10.0 mi SW 8.1 mph - N/A   Overcast
11:35 AM 76.8 °F - 66.7 °F 71% 29.78 in 10.0 mi SW 11.5 mph - N/A   Overcast
11:55 AM 76.5 °F - 66.0 °F 70% 29.78 in 10.0 mi SW 12.7 mph - N/A   Overcast
12:15 PM 77.0 °F - 65.8 °F 68% 29.77 in 10.0 mi West 9.2 mph 16.1 mph N/A   Overcast
12:35 PM 79.2 °F - 64.4 °F 60% 29.77 in 10.0 mi WSW 9.2 mph - N/A   Scattered Clouds
12:55 PM 80.8 °F 82.1 °F 63.1 °F 55% 29.76 in 10.0 mi WSW 10.4 mph - N/A   Clear
1:15 PM 80.8 °F 82.2 °F 63.5 °F 56% 29.76 in 10.0 mi WSW 10.4 mph 17.3 mph N/A   Scattered Clouds
1:35 PM 79.9 °F - 64.6 °F 59% 29.75 in 10.0 mi WSW 10.4 mph - N/A   Mostly Cloudy
1:55 PM 81.5 °F 82.8 °F 63.5 °F 54% 29.75 in 10.0 mi WSW 10.4 mph 17.3 mph N/A   Mostly Cloudy
2:15 PM 81.0 °F 82.5 °F 63.7 °F 56% 29.75 in 10.0 mi SW 13.8 mph - N/A   Mostly Cloudy
2:35 PM 81.1 °F 82.4 °F 63.0 °F 54% 29.75 in 10.0 mi SW 11.5 mph - N/A   Mostly Cloudy
2:55 PM 81.1 °F 82.4 °F 63.1 °F 54% 29.74 in 10.0 mi WSW 10.4 mph - N/A   Mostly Cloudy
3:15 PM 81.1 °F 82.4 °F 63.1 °F 54% 29.74 in 10.0 mi SW 11.5 mph 16.1 mph N/A   Scattered Clouds
3:35 PM 80.1 °F 81.7 °F 63.9 °F 58% 29.74 in 10.0 mi SW 11.5 mph - N/A   Scattered Clouds
3:55 PM 80.2 °F 82.0 °F 64.6 °F 59% 29.73 in 10.0 mi SW 12.7 mph - N/A   Scattered Clouds
4:15 PM 82.4 °F 83.9 °F 64.0 °F 54% 29.73 in 10.0 mi SW 15.0 mph - N/A   Clear
4:35 PM 81.7 °F 83.0 °F 63.3 °F 54% 29.73 in 10.0 mi WSW 18.4 mph 23.0 mph N/A   Mostly Cloudy
4:55 PM 81.0 °F 82.6 °F 64.2 °F 57% 29.74 in 10.0 mi WNW 5.8 mph - N/A   Mostly Cloudy
5:15 PM 79.7 °F - 61.7 °F 54% 29.75 in 10.0 mi NW 8.1 mph - N/A   Mostly Cloudy
5:35 PM 79.9 °F - 57.2 °F 46% 29.75 in 10.0 mi North 9.2 mph 17.3 mph N/A   Overcast
5:55 PM 77.7 °F - 64.2 °F 63% 29.77 in 10.0 mi NNE 5.8 mph - N/A   Overcast
6:15 PM 77.4 °F - 62.6 °F 60% 29.78 in 10.0 mi NE 6.9 mph - N/A   Overcast
6:35 PM 77.4 °F - 62.8 °F 61% 29.78 in 10.0 mi NNW 4.6 mph - N/A   Overcast
6:55 PM 77.9 °F - 53.1 °F 42% 29.78 in 10.0 mi NNW 9.2 mph - N/A   Overcast
7:15 PM 75.9 °F - 52.2 °F 43% 29.80 in 10.0 mi NNW 11.5 mph - N/A   Overcast
7:35 PM 73.8 °F - 53.2 °F 49% 29.81 in 10.0 mi NNW 10.4 mph - N/A   Mostly Cloudy
7:55 PM 71.6 °F - 53.1 °F 52% 29.81 in 10.0 mi NNW 6.9 mph - N/A   Scattered Clouds
8:15 PM 70.3 °F - 52.7 °F 53% 29.82 in 10.0 mi NNW 6.9 mph - N/A   Clear
8:35 PM 69.3 °F - 52.2 °F 54% 29.82 in 10.0 mi NNW 8.1 mph - N/A   Clear
8:55 PM 69.8 °F - 51.8 °F 53% 29.82 in 10.0 mi NNW 9.2 mph - N/A   Clear
9:15 PM 68.5 °F - 52.5 °F 57% 29.83 in 10.0 mi NNW 8.1 mph - N/A   Clear
9:35 PM 68.0 °F - 52.7 °F 58% 29.83 in 10.0 mi NNW 5.8 mph - N/A   Clear
9:55 PM 67.5 °F - 52.9 °F 59% 29.84 in 10.0 mi NNW 3.5 mph - N/A   Clear
10:15 PM 66.9 °F - 53.4 °F 62% 29.85 in 10.0 mi Calm Calm - N/A   Clear
10:35 PM 65.3 °F - 54.0 °F 67% 29.85 in 10.0 mi Calm Calm - N/A   Clear
10:55 PM 65.3 °F - 54.0 °F 67% 29.86 in 10.0 mi Calm Calm - N/A   Clear
11:15 PM 62.1 °F - 55.4 °F 79% 29.86 in 10.0 mi Calm Calm - N/A   Clear
11:35 PM 61.7 °F - 55.8 °F 81% 29.86 in 10.0 mi Calm Calm - N/A   Clear
11:55 PM 61.2 °F - 55.0 °F 80% 29.85 in 10.0 mi Calm Calm - N/A   Clear